Главная страница
METAR-TAF:

METAR-TAF

Аэропорты :

Linden, Нью-Джерси, США

широта: 40-37-03N, долгота: 074-14-40W, высота над уровнем моря: 7 м

Текущие метеонаблюдения

Эта сводка был подготовлена 20 минут назад, в 15:55 UTC
Ветер 8 Узел от западный
Температура 1°C
Влажность 64%
Давление 1020 hPa
Видимость: 16.1 км
Сплошная облачность на высоте 3200 фута

METAR: KLDJ 161555Z AUTO 28008KT 10SM OVC032 01/M05 A3011 RMK AO2 T00101050

Время: 11:15 (16:15 UTC)


TAF: отсутствует

Метеонаблюдения и прогнозы для более 4000 аэропортов (сводки METAR и TAF).

Имеющиеся станции представлены на карте желтыми и красными точками.

Чтобы увидеть название станции, наведите на нее мышь.

Затем щелкните, чтобы увидеть метеонаблюдения и метеопрогнозы.

Управление картой: чтобы увеличить масштаб, щелкните зеленые кнопки с черным крестиком; чтобы уменьшить масштаб, щелкните зеленую кнопку с тире; для просмотра соседних карт щелкайте зеленые стрелки.


METAR-TAF: